Retour au catalogue

STARLINK-32348

ActifCommunicationsVLEO
NORAD 61631·PAYLOAD·🇺🇸 United States

Lancé Oct 23, 2024 depuis Cape Canaveral Space Force Station

Loading…

Prochains Passages (prochaines 24 heures)

TLE

FraisSource: CelesTrak SupGP

Époque: Sep 14, 2026, 22:23 UTC

1 61631C 24191L   26257.93312500 -.00042601  00000+0 -15429-2 0  2573
2 61631  42.9998 169.3134 0001294 268.4310 236.8999 15.27600973    14

Suivez STARLINK-32348 en temps réel avec AllMySat

Download on the App Store